DELTA 1 DEB, 21546

Orbit data source: Space-Track

DELTA 1 DEB, 21546 is space debris in SSO originally from a launch on Thu, 12 Jun 1975 UTC launched from the Air Force Western Test Range (AFWTR). Debris objects in space refer to the collection of defunct objects orbiting the Earth. Examples of debris include non-operational satellites, rocket bodies, and fragments generated from explosions, collisions, or faulty payload assembly.

Loading next visibility...
Identifier
21546, 1975-052HA
Orbit
SSO
Country
Flag of USUS
Related business
Manufacturer
Unknown
Mission
Spacecraft
Bus & Motor
Unknown
Mass
Unknown
Launch date (UTC)
1975-06-12 (51 years ago)
Launch vehicle
Unknown
Launch site
Air Force Western Test Range (AFWTR)
Object type
Payload
Rocket body
Debris
Shape & HBR
Unknown shape, 0.2 m
Radar Cross Section
Small (<0.1 m²)

Expand to show TLE details & history
Last TLE update: 1 day ago

TLE from 1 day ago
0 DELTA 1 DEB
1 21546U 75052HA  25353.41879779  .00000391  00000-0  19609-2 0  9997
2 21546  99.5470 327.1925 0616497 328.5906 186.4940 12.28615897546465
Epoch: 2025-12-19T10:03Z
TLE epoch observation values (Epoch: 2025-12-19T10:03:04.129Z)
Latitude
25.30108°
Longitude
-87.29558°
Altitude
2,044.433 km
Speed
6.668 km/s
True Right ascension
10h 06m 55s
True Declination
25° 11' 19"
Sunlit
Object was in daylight at epoch
Visualization orbit readout
Latitude
Unknown
Longitude
Unknown
Altitude
Unknown
Speed
Unknown
Apparent Right ascension
Unknown
Apparent Declination
Unknown
Sunlit
N/A
Visualization observer readout
Local Sidereal Time
10:58:05
Azimuth
Unknown
Elevation
Unknown
Doppler factor
Unknown
Orbital elements
Apogee altitude
2,041.61 km
Perigee altitude
1,063.746 km
Semi-major axis
7,930.815 km
Eccentricity
0.06165
Inclination
99.547°
RAAN
327.1925°
Arg. of periapsis
328.5906°
True anomaly
185.752°
Mean anomaly
186.494°
Eccentric anomaly
186.11757°
Mean motion
3.07303 °/min
Orbital period
117.15 mins
BSTAR
0.0019609
Loading maneuver chart data...
Computing Atmospheric mass density...
Loading historical data...
Loading historical data...
Loading historical data...
Loading historical data...
Loading historical data...
Loading historical data...
Loading historical data...

Documentation

Showing up to 5 results
|